FW1389 Weather Reports


time (UTC)temp
F
wind
direction
speed
knots
gust
knots
rain 1hr
in
rain 24hr
in
rain mn
in
humidity
%
barometer
mb
20260508121535 62 259 0.0 3.5 0.00 0.00 0.00 69 1007.9
20260508120035 63 257 0.0 0.0 0.00 0.00 0.00 70 1007.8
20260508114532 62 291 0.9 3.5 0.00 0.00 0.00 72 1007.8
20260508113030 61 294 0.0 3.5 0.00 0.00 0.00 74 1007.7
20260508111529 61 270 0.9 3.5 0.00 0.00 0.00 74 1008.0
20260508110026 60 273 0.0 1.7 0.00 0.00 0.00 76 1008.1
20260508104533 60 252 0.0 4.3 0.00 0.00 0.00 76 1008.3
20260508103027 60 58 0.0 1.7 0.00 0.00 0.00 79 1008.2
20260508101517 59 96 0.0 2.6 0.00 0.00 0.00 81 1008.1
20260508100016 59 109 0.0 1.7 0.00 0.00 0.00 84 1008.0
20260508094511 58 109 0.0 2.6 0.00 0.00 0.00 84 1007.9
20260508093009 57 92 0.0 1.7 0.00 0.00 0.00 85 1007.8
20260508091505 57 84 0.0 2.6 0.00 0.00 0.00 86 1007.7
20260508090004 56 53 0.0 2.6 0.00 0.00 0.00 89 1007.7
20260508084600 56 57 0.0 0.9 0.00 0.00 0.00 90 1007.9
20260508083111 55 57 0.0 0.0 0.00 0.00 0.00 90 1007.7
20260508081600 55 46 0.0 1.7 0.00 0.00 0.00 90 1007.8
20260508080108 55 46 0.0 1.7 0.00 0.00 0.00 91 1007.9
20260508074555 55 44 0.0 3.5 0.00 0.00 0.00 91 1007.7
20260508073055 54 184 0.0 0.0 0.00 0.00 0.00 91 1007.7
20260508071601 54 184 0.0 0.9 0.00 0.00 0.00 91 1007.6
20260508070137 54 184 0.0 2.6 0.00 0.00 0.00 90 1007.7
20260508064600 54 184 0.9 2.6 0.00 0.00 0.00 90 1007.5
20260508063048 54 187 0.0 4.3 0.00 0.00 0.00 90 1007.3
20260508061549 54 214 0.9 2.6 0.00 0.00 0.00 89 1007.1
20260508060045 54 251 0.0 1.7 0.00 0.00 0.00 89 1006.8
20260508054544 54 251 0.0 0.9 0.00 0.00 0.00 89 1006.8
20260508053045 54 251 0.0 1.7 0.00 0.00 0.00 89 1006.8
20260508051540 53 251 0.0 0.9 0.00 0.00 0.00 90 1007.0
20260508050041 54 251 0.0 2.6 0.00 0.00 0.00 90 1007.0
20260508044540 54 244 0.0 1.7 0.00 0.00 0.00 90 1006.9
20260508043056 53 226 0.0 0.9 0.00 0.00 0.00 90 1007.0
20260508041538 53 226 0.0 1.7 0.00 0.00 0.00 90 1007.1
20260508040038 54 227 0.0 1.7 0.00 0.00 0.00 90 1007.1
20260508034536 54 232 0.0 0.9 0.00 0.00 0.00 89 1007.1
20260508033036 54 232 0.0 0.9 0.00 0.00 0.00 89 1007.2
20260508031534 54 232 0.0 0.9 0.00 0.00 0.00 90 1007.3
20260508030048 53 232 0.0 0.9 0.00 0.00 0.00 90 1007.2
20260508024535 53 232 0.0 0.9 0.00 0.00 0.00 90 1007.2
20260508023032 53 232 0.0 1.7 0.00 0.00 0.00 91 1007.2
20260508021536 53 243 0.0 0.9 0.00 0.00 0.00 91 1007.3
20260508020031 53 243 0.0 1.7 0.00 0.00 0.00 91 1007.4
20260508014529 53 243 0.0 0.0 0.00 0.00 0.00 91 1007.5
20260508013027 53 243 0.0 0.0 0.00 0.00 0.00 92 1007.7
20260508011527 53 243 0.0 0.0 0.00 0.00 0.00 92 1007.8
20260508010027 53 243 0.0 0.0 0.00 0.00 0.00 92 1007.9
20260508004527 53 243 0.0 0.9 0.00 0.00 0.00 92 1008.1
20260508003021 54 243 0.0 0.0 0.00 0.00 0.00 92 1008.2
20260508001520 54 243 0.0 0.0 0.00 0.00 0.00 92 1008.2
20260508000018 54 243 0.0 0.0 0.00 0.00 0.00 91 1008.3
20260507234518 55 243 0.0 0.9 0.00 0.00 0.00 91 1008.4
20260507233014 55 243 0.0 0.9 0.00 0.00 0.00 90 1008.5
20260507231517 55 243 0.0 0.9 0.00 0.00 0.00 90 1008.7
20260507230011 56 243 0.0 0.0 0.00 0.00 0.00 89 1008.8
20260507224508 56 243 0.0 0.0 0.00 0.00 0.00 89 1008.7
20260507223008 56 243 0.0 0.9 0.00 0.00 0.00 90 1009.0
20260507221508 56 243 0.0 0.0 0.00 0.00 0.00 91 1009.3
20260507220104 56 243 0.0 0.0 0.00 0.00 0.00 91 1009.3
20260507214508 56 243 0.0 0.0 0.00 0.00 0.00 91 1009.3
20260507213010 56 243 0.0 0.0 0.00 0.00 0.00 91 1009.3
20260507211508 56 243 0.0 0.0 0.00 0.00 0.00 91 1009.2
20260507210010 56 243 0.0 0.9 0.00 0.00 0.00 91 1009.2
20260507204508 56 243 0.0 0.9 0.00 0.00 0.00 91 1009.0
20260507203007 56 243 0.9 3.5 0.00 0.00 0.00 90 1009.0
20260507201506 56 243 0.0 0.9 0.00 0.00 0.00 90 1008.7
20260507200005 56 243 0.9 3.5 0.00 0.00 0.00 90 1008.6
20260507194504 57 250 0.9 2.6 0.00 0.00 0.00 89 1008.5
20260507193005 57 250 0.0 0.9 0.00 0.00 0.00 88 1008.5
20260507191504 57 250 0.0 2.6 0.00 0.00 0.00 88 1008.6
20260507190007 58 250 0.0 2.6 0.00 0.00 0.00 87 1008.6
20260507184504 58 250 0.0 2.6 0.00 0.00 0.00 87 1008.5
20260507183006 58 248 0.9 3.5 0.00 0.00 0.00 87 1008.5
20260507181503 58 249 0.9 4.3 0.00 0.00 0.00 87 1008.6
20260507180003 59 274 0.9 3.5 0.00 0.00 0.00 86 1008.4
20260507174501 59 275 0.9 5.2 0.00 0.00 0.00 85 1008.4
20260507173002 59 252 0.9 4.3 0.00 0.00 0.00 84 1008.4
20260507171502 59 286 1.7 6.1 0.00 0.00 0.00 85 1008.3
20260507164629 61 344 0.0 1.7 0.00 0.00 0.00 81 1008.6
20260507163057 61 344 0.0 0.0 0.00 0.00 0.00 81 1008.8
20260507161601 61 344 0.0 2.6 0.00 0.00 0.00 80 1009.0
20260507160056 61 336 0.0 3.5 0.00 0.00 0.00 79 1009.0
20260507154555 61 18 0.0 3.5 0.00 0.00 0.00 78 1008.8
20260507153054 62 19 0.9 4.3 0.00 0.00 0.00 77 1008.7
20260507151552 62 13 0.0 3.5 0.00 0.00 0.00 78 1008.8
20260507150050 61 31 0.9 2.6 0.00 0.00 0.00 82 1008.9
20260507144546 59 36 0.0 3.5 0.00 0.00 0.00 82 1009.2
20260507143100 59 36 0.0 2.6 0.00 0.00 0.00 81 1009.6
20260507141603 59 36 0.0 2.6 0.00 0.00 0.00 82 1009.7
20260507140045 59 36 0.0 2.6 0.00 0.00 0.00 83 1009.7
20260507134542 59 36 0.0 4.3 0.00 0.00 0.00 83 1009.6
20260507133042 59 36 0.0 4.3 0.00 0.00 0.00 83 1009.5
20260507131551 59 36 1.7 5.2 0.00 0.00 0.00 85 1009.3
20260507130043 58 10 1.7 5.2 0.00 0.00 0.00 85 1009.4
20260507124538 58 36 2.6 7.0 0.00 0.00 0.00 84 1009.8
20260507123039 59 35 2.6 7.0 0.00 0.00 0.00 83 1010.0